{"data":{"norad_id":64356,"intl_designator":"2025-126N","name":"STARLINK-34397","alt_names":[],"object_type":"PAYLOAD","status":"ACTIVE","operator":null,"country":"US","launch_date":"2025-06-13","launch_site_code":"AFWTR","launch_vehicle":null,"mission":null,"orbit_class":"UNKNOWN","rcs_meters":null,"size_class":null,"mass_kg":null,"dimensions":null,"purposes":["comms"],"wikipedia_slug":null,"has_3d_model":false,"image_url":null,"decayed_at":null,"tle_current":{"epoch":"2026-09-20T09:33:36.260640Z","epoch_age_seconds":143028,"freshness":"FRESH","line1":"1 64356U 25126N   26263.39833635  .00009420  00000+0  33169-3 0  9998","line2":"2 64356  69.9999 261.2825 0003660 270.3641  89.7115 15.29581102 69900","mean_motion":15.29581102,"eccentricity":0.000366,"inclination_deg":69.9999,"raan_deg":261.2825,"arg_perigee_deg":270.3641,"mean_anomaly_deg":89.7115,"bstar":0.00033169,"rev_number":6990,"period_min":94.14342254341,"perigee_km":474.55460692481,"apogee_km":479.57261377159,"semimajor_km":6855.2006103482,"source":"CELESTRAK","updated_at":"2026-09-21T09:00:35.318301Z"}}}